Location: Demmingen
(48.6757°N, 10.4375°E)
Time: 21:23:52
(UTC+00:00)

Cosmos 1315 Rocket - Pass Details

Date: 23 May 2024
Orbit: 515 x 542 km, 81.2° (Epoch: 14 June)

Event Time Altitude Azimuth Distance (km) Brightness Sun altitude
Exits shadow 01:40:11 21° 238° (WSW) 1,227 4.0 -13.5°
Maximum altitude 01:42:09 34° 289° (WNW) 892 3.7 -13.3°
Drops below altitude 10° 01:45:45 10° 355° (N) 1,787 6.2 -13.0°
Sets 01:48:05 0° 5° (N) 2,688 7.4 -12.7°
